Find Kosmos-1478

NORAD ID: 14176 Int'l Des: 1983-069 Owner: GUKOS Country: SU operational
LEOCIRCULAR

リアルタイム位置

3D地球を読み込み中...

Kosmos-1478について

説明を読み込み中...

次回通過

Passes for default location (London). Set your location on the main map for personalized predictions.

高度履歴

Loading altitude history...

軌道要素

1 14176U 83069F 26106.08357030 .00000008 00000-0 16215-3 0 9992
2 14176 74.0222 121.9906 0012871 260.5730 122.0286 12.48262999949395
Epoch: Apr 16, 2026 • Age: 13 hours

現在のステータス

高度 1487.4 km
速度 7.12 km/s
衛星直下点 -64.72°S, 14.78°E
打ち上げ日 Jul 6, 1983
運用期間 42.7 years
タイプ other

技術仕様

分類 Payload
質量 60.00 kg
乾燥質量 60.00 kg
総質量 60.00 kg
長さ 0.80 m
直径 0.80 m
スパン 0.80 m
形状 Poly
製造者 NPOPM
バスタイプ Strela-1 11F625
フェーズステータス In Orbit
所有者/国 GUKOS/SU

Most Searched